Overview Statistics Trail Chart Weather Telemetry Raw packets
 

This is the latest recevied weather packets stored in our database for station/object HB9FHL-13. If no packets are shown the sender has not sent any weather packets the latest 10 day(s).

<< 21 22 23 24 25 26 27 >>
Time Temp. Humidity Pressure Rain* Wind** Luminosity Snow
1788544296 27.78° C - 1015.4 hPa 0 mm - - -
1788543996 26.11° C - 1016.7 hPa 0 mm - - -
1788543695 27.22° C - 1011.1 hPa 0 mm - - -
1788543395 27.78° C - 1012.7 hPa 0 mm - - -
1788543095 26.11° C - 1020.8 hPa 0 mm - - -
1788542788 26.67° C - 1015.9 hPa 0 mm - - -
1788542186 26.67° C - 1018.9 hPa 0 mm - - -
1788541886 26.11° C - 1019.5 hPa 0 mm - - -
1788541586 27.78° C - 1019.9 hPa 0 mm - - -
1788541285 27.78° C - 1018.7 hPa 0 mm - - -
1788540984 26.67° C - 1019.4 hPa 0 mm - - -
1788540684 26.67° C - 1016.5 hPa 0 mm - - -
1788540383 27.22° C - 1021.8 hPa 0 mm - - -
1788540083 26.67° C - 1004.2 hPa 0 mm - - -
1788539782 27.22° C - 1015.6 hPa 0 mm - - -
1788539482 26.67° C - 1020.3 hPa 0 mm - - -
1788539181 28.33° C - 1013.6 hPa 0 mm - - -
1788538881 27.78° C - 1016.6 hPa 0 mm - - -
1788538580 27.22° C - 1018.6 hPa 0 mm - - -
1788538280 27.22° C - 1018.1 hPa 0 mm - - -
1788537979 26.67° C - 1016.3 hPa 0 mm - - -
1788537679 26.67° C - 1023.7 hPa 0 mm - - -
1788537378 26.67° C - 1021.3 hPa 0 mm - - -
1788537079 25.56° C - 1011.3 hPa 0 mm - - -
1788536777 27.22° C - 1013.7 hPa 0 mm - - -

* Rain since midnight (hover to see other rain measurements)
** Current wind speed in m/s (hover to see current wind gust speed)